TimeWET,TemperatureF,Dew PointF,Humidity,Sea Level PressureIn,VisibilityMPH,Wind Direction,Wind SpeedMPH,Gust SpeedMPH,PrecipitationIn,Events,Conditions,WindDirDegrees,DateUTC
12:00 AM,60,52,67,30.09,6,West,4.6,,,,Partly Cloudy,260,2012-10-13 00:00:00
12:00 AM,60.8,51.8,72,30.12,6.2,West,4.6,-,N/A,,Scattered Clouds,260,2012-10-13 00:00:00
1:00 AM,57.2,51.8,82,30.12,6.2,NNW,4.6,-,N/A,,Scattered Clouds,340,2012-10-13 01:00:00
2:00 AM,60.8,51.8,72,30.09,6.2,NW,6.9,-,N/A,,Mostly Cloudy,320,2012-10-13 02:00:00
3:00 AM,60,52,67,30.07,6,WNW,6.9,,,,Partly Cloudy,300,2012-10-13 03:00:00
3:30 AM,60.8,51.8,72,30.09,6.2,WNW,6.9,-,N/A,,Scattered Clouds,300,2012-10-13 03:30:00
4:00 AM,59.0,51.8,77,30.09,6.2,WNW,4.6,-,N/A,,Mostly Cloudy,300,2012-10-13 04:00:00
5:00 AM,59.0,53.6,82,30.09,6.2,West,4.6,-,N/A,,Mostly Cloudy,260,2012-10-13 05:00:00
6:00 AM,58,52,73,30.07,6,WSW,4.6,,,,Mostly Cloudy,240,2012-10-13 06:00:00
6:00 AM,59.0,51.8,77,30.09,6.2,WSW,4.6,-,N/A,,Scattered Clouds,240,2012-10-13 06:00:00
7:00 AM,57.2,53.6,88,30.09,6.2,NW,4.6,-,N/A,,Scattered Clouds,320,2012-10-13 07:00:00
8:00 AM,62.6,53.6,72,30.12,6.2,WNW,4.6,-,N/A,,Scattered Clouds,300,2012-10-13 08:00:00
9:00 AM,62.6,53.6,72,30.12,6.2,NNW,6.9,-,N/A,,Scattered Clouds,330,2012-10-13 09:00:00
10:00 AM,66.2,53.6,64,30.12,6.2,West,4.6,-,N/A,,Scattered Clouds,270,2012-10-13 10:00:00
11:00 AM,66.2,51.8,60,30.12,6.2,NNE,4.6,-,N/A,,Scattered Clouds,20,2012-10-13 11:00:00
12:00 PM,70,51,40,30.03,6,WNW,3.5,,,,Partly Cloudy,300,2012-10-13 12:00:00
12:00 PM,69.8,50.0,49,30.09,6.2,WNW,3.5,-,N/A,,Scattered Clouds,300,2012-10-13 12:00:00
1:00 PM,71.6,50.0,46,30.06,6.2,NNW,4.6,-,N/A,,Scattered Clouds,340,2012-10-13 13:00:00
2:00 PM,73.4,50.0,44,30.06,6.2,NNW,6.9,-,N/A,,Scattered Clouds,330,2012-10-13 14:00:00
3:00 PM,75,45,24,29.95,6,North,6.9,,,,Scattered Clouds,350,2012-10-13 15:00:00
3:00 PM,75.2,46.4,36,30.04,6.2,North,6.9,-,N/A,,Partly Cloudy,350,2012-10-13 15:00:00
4:00 PM,73.4,44.6,36,30.04,6.2,North,9.2,-,N/A,,Partly Cloudy,350,2012-10-13 16:00:00
5:00 PM,73.4,50.0,44,30.04,6.2,NNW,6.9,-,N/A,,Partly Cloudy,340,2012-10-13 17:00:00
6:00 PM,67,46,36,29.99,6,NNW,9.2,,,,Scattered Clouds,340,2012-10-13 18:00:00
6:00 PM,68.0,46.4,46,30.04,6.2,NNW,9.2,-,N/A,,Partly Cloudy,340,2012-10-13 18:00:00
7:00 PM,64.4,48.2,56,30.06,6.2,NW,4.6,-,N/A,,Partly Cloudy,320,2012-10-13 19:00:00
8:00 PM,62.6,48.2,59,30.06,6.2,WSW,9.2,-,N/A,,Partly Cloudy,240,2012-10-13 20:00:00
9:00 PM,62,53,63,30.03,6,WNW,4.6,,,,Scattered Clouds,300,2012-10-13 21:00:00
9:00 PM,62.6,51.8,68,30.06,6.2,WNW,4.6,-,N/A,,Partly Cloudy,300,2012-10-13 21:00:00
10:00 PM,59.0,50.0,72,30.06,-9999.0,SW,9.2,-,N/A,,Clear,220,2012-10-13 22:00:00
11:00 PM,57.2,50.0,77,30.06,-9999.0,SW,6.9,-,N/A,,Clear,220,2012-10-13 23:00:00